Time,TemperatureF,DewpointF,PressureIn,WindDirection,WindDirectionDegrees,WindSpeedMPH,WindSpeedGustMPH,Humidity,HourlyPrecipIn,Conditions,Clouds,dailyrainin,SoftwareType,DateUTC
2013-02-15 00:01:00,38.8,30.2,29.95,SE,138,1.0,1.0,71,0.00,,,0.20,Wunderground v.1.15,2013-02-15 05:01:00,
2013-02-15 00:04:00,38.8,30.2,29.96,West,269,1.0,2.0,71,0.00,,,0.00,Wunderground v.1.15,2013-02-15 05:04:00,
2013-02-15 00:10:00,38.9,29.9,29.95,South,184,2.0,4.0,70,0.00,,,0.00,Wunderground v.1.15,2013-02-15 05:10:00,
2013-02-15 00:11:00,39.0,30.0,29.95,SSW,195,2.0,3.0,70,0.00,,,0.00,Wunderground v.1.15,2013-02-15 05:11:00,
2013-02-15 00:17:00,39.1,30.1,29.95,SSW,209,3.0,3.0,70,0.00,,,0.00,Wunderground v.1.15,2013-02-15 05:17:00,
2013-02-15 00:23:00,39.5,30.2,29.96,SSW,212,3.0,6.0,69,0.00,,,0.00,Wunderground v.1.15,2013-02-15 05:23:00,
2013-02-15 00:29:00,39.7,30.4,29.96,SW,219,4.0,7.0,69,0.00,,,0.00,Wunderground v.1.15,2013-02-15 05:29:00,
2013-02-15 00:35:00,39.8,30.5,29.95,South,187,4.0,8.0,69,0.00,,,0.00,Wunderground v.1.15,2013-02-15 05:35:00,
2013-02-15 00:41:00,40.0,30.6,29.96,SSW,194,3.0,5.0,69,0.00,,,0.00,Wunderground v.1.15,2013-02-15 05:41:00,
2013-02-15 00:47:00,40.0,30.6,29.95,South,183,3.0,5.0,69,0.00,,,0.00,Wunderground v.1.15,2013-02-15 05:47:00,
2013-02-15 00:53:00,40.2,31.2,29.95,South,171,4.0,4.0,70,0.00,,,0.00,Wunderground v.1.15,2013-02-15 05:53:00,
2013-02-15 00:59:00,40.2,31.2,29.96,SW,218,4.0,6.0,70,0.00,,,0.00,Wunderground v.1.15,2013-02-15 05:59:00,
2013-02-15 01:05:00,40.0,31.0,29.95,West,271,3.0,4.0,70,0.00,,,0.00,Wunderground v.1.15,2013-02-15 06:05:00,
2013-02-15 01:11:00,40.1,31.1,29.95,SSE,149,3.0,4.0,70,0.00,,,0.00,Wunderground v.1.15,2013-02-15 06:11:00,
2013-02-15 01:17:00,40.0,31.4,29.95,WSW,242,2.0,8.0,71,0.00,,,0.00,Wunderground v.1.15,2013-02-15 06:17:00,
2013-02-15 01:23:00,40.1,31.4,29.95,SSW,207,2.0,4.0,71,0.00,,,0.00,Wunderground v.1.15,2013-02-15 06:23:00,
2013-02-15 01:29:00,40.1,31.4,29.95,SW,219,3.0,10.0,71,0.00,,,0.00,Wunderground v.1.15,2013-02-15 06:29:00,
2013-02-15 01:34:00,40.0,31.4,29.95,West,268,2.0,5.0,71,0.00,,,0.00,Wunderground v.1.15,2013-02-15 06:34:00,
2013-02-15 01:39:00,40.0,31.4,29.95,NW,309,2.0,5.0,71,0.00,,,0.00,Wunderground v.1.15,2013-02-15 06:39:00,
2013-02-15 01:45:00,39.9,31.6,29.95,WSW,252,2.0,6.0,72,0.00,,,0.00,Wunderground v.1.15,2013-02-15 06:45:00,
2013-02-15 01:51:00,40.0,31.7,29.96,WSW,240,3.0,5.0,72,0.00,,,0.00,Wunderground v.1.15,2013-02-15 06:51:00,
2013-02-15 01:57:00,39.8,31.5,29.96,West,259,2.0,6.0,72,0.00,,,0.00,Wunderground v.1.15,2013-02-15 06:57:00,
2013-02-15 02:03:00,39.6,31.7,29.96,SW,227,2.0,3.0,73,0.00,,,0.00,Wunderground v.1.15,2013-02-15 07:03:00,
2013-02-15 02:09:00,39.4,31.1,29.96,West,263,1.0,3.0,72,0.00,,,0.00,Wunderground v.1.15,2013-02-15 07:09:00,
2013-02-15 02:15:00,39.2,31.3,29.96,West,263,1.0,2.0,73,0.00,,,0.00,Wunderground v.1.15,2013-02-15 07:15:00,
2013-02-15 02:21:00,38.9,31.0,29.97,West,263,0.0,2.0,73,0.00,,,0.00,Wunderground v.1.15,2013-02-15 07:21:00,
2013-02-15 02:26:00,38.8,31.2,29.97,WNW,301,0.0,2.0,74,0.00,,,0.00,Wunderground v.1.15,2013-02-15 07:26:00,
2013-02-15 02:32:00,38.7,31.1,29.97,WNW,301,1.0,2.0,74,0.00,,,0.00,Wunderground v.1.15,2013-02-15 07:32:00,
2013-02-15 02:38:00,38.5,30.9,29.97,West,281,1.0,2.0,74,0.00,,,0.00,Wunderground v.1.15,2013-02-15 07:38:00,
2013-02-15 02:44:00,38.3,31.1,29.98,NW,317,1.0,3.0,75,0.00,,,0.00,Wunderground v.1.15,2013-02-15 07:44:00,
2013-02-15 02:50:00,38.1,31.2,29.98,NW,321,3.0,3.0,76,0.00,,,0.00,Wunderground v.1.15,2013-02-15 07:50:00,
2013-02-15 02:56:00,37.8,31.9,29.98,NW,315,2.0,5.0,79,0.00,,,0.00,Wunderground v.1.15,2013-02-15 07:56:00,
2013-02-15 03:02:00,37.4,32.4,29.99,NNW,336,2.0,5.0,82,0.00,,,0.00,Wunderground v.1.15,2013-02-15 08:02:00,
2013-02-15 03:08:00,37.1,32.4,29.99,NNW,340,2.0,5.0,83,0.00,,,0.00,Wunderground v.1.15,2013-02-15 08:08:00,
2013-02-15 03:13:00,36.9,32.5,29.99,West,271,2.0,7.0,84,0.00,,,0.00,Wunderground v.1.15,2013-02-15 08:13:00,
2013-02-15 03:19:00,36.7,32.6,29.99,West,271,2.0,7.0,85,0.00,,,0.00,Wunderground v.1.15,2013-02-15 08:19:00,
2013-02-15 03:25:00,36.5,32.4,29.99,NW,308,2.0,3.0,85,0.00,,,0.00,Wunderground v.1.15,2013-02-15 08:25:00,
2013-02-15 03:31:00,36.4,32.6,29.99,West,277,2.0,4.0,86,0.00,,,0.00,Wunderground v.1.15,2013-02-15 08:31:00,
2013-02-15 03:37:00,36.3,32.5,29.99,WNW,302,1.0,4.0,86,0.00,,,0.00,Wunderground v.1.15,2013-02-15 08:37:00,
2013-02-15 03:43:00,36.2,32.4,29.99,West,265,2.0,5.0,86,0.00,,,0.00,Wunderground v.1.15,2013-02-15 08:43:00,
2013-02-15 03:49:00,36.1,32.6,29.99,West,266,2.0,5.0,87,0.00,,,0.00,Wunderground v.1.15,2013-02-15 08:49:00,
2013-02-15 03:55:00,35.9,32.1,29.99,NNW,328,2.0,5.0,86,0.00,,,0.00,Wunderground v.1.15,2013-02-15 08:55:00,
2013-02-15 04:01:00,35.7,31.6,29.99,NW,311,3.0,3.0,85,0.00,,,0.00,Wunderground v.1.15,2013-02-15 09:01:00,
2013-02-15 04:07:00,35.6,30.6,29.99,WNW,301,2.0,6.0,82,0.00,,,0.00,Wunderground v.1.15,2013-02-15 09:07:00,
2013-02-15 04:13:00,35.5,30.5,29.99,West,278,2.0,5.0,82,0.00,,,0.00,Wunderground v.1.15,2013-02-15 09:13:00,
2013-02-15 04:19:00,35.4,30.1,30.00,WSW,254,2.0,5.0,81,0.00,,,0.00,Wunderground v.1.15,2013-02-15 09:19:00,
2013-02-15 04:25:00,35.3,30.1,30.00,WNW,288,2.0,7.0,81,0.00,,,0.00,Wunderground v.1.15,2013-02-15 09:25:00,
2013-02-15 04:31:00,35.3,30.1,30.00,NW,317,2.0,4.0,81,0.00,,,0.00,Wunderground v.1.15,2013-02-15 09:31:00,
2013-02-15 04:36:00,35.2,29.6,30.00,West,261,2.0,4.0,80,0.00,,,0.00,Wunderground v.1.15,2013-02-15 09:36:00,
2013-02-15 04:42:00,35.1,29.6,30.00,WSW,248,2.0,3.0,80,0.00,,,0.00,Wunderground v.1.15,2013-02-15 09:42:00,
2013-02-15 04:48:00,35.1,29.2,30.00,WSW,253,2.0,4.0,79,0.00,,,0.00,Wunderground v.1.15,2013-02-15 09:48:00,
2013-02-15 04:54:00,35.1,28.9,30.00,WNW,301,1.0,2.0,78,0.00,,,0.00,Wunderground v.1.15,2013-02-15 09:54:00,
2013-02-15 05:00:00,35.0,28.8,30.00,WNW,297,1.0,2.0,78,0.00,,,0.00,Wunderground v.1.15,2013-02-15 10:00:00,
2013-02-15 05:06:00,34.9,28.4,30.00,NW,304,1.0,4.0,77,0.00,,,0.00,Wunderground v.1.15,2013-02-15 10:06:00,
2013-02-15 05:12:00,34.8,28.0,30.00,WNW,284,1.0,2.0,76,0.00,,,0.00,Wunderground v.1.15,2013-02-15 10:12:00,
2013-02-15 05:17:00,34.7,27.9,30.00,West,272,1.0,2.0,76,0.00,,,0.00,Wunderground v.1.15,2013-02-15 10:17:00,
2013-02-15 05:23:00,34.7,28.2,30.00,West,272,0.0,2.0,77,0.00,,,0.00,Wunderground v.1.15,2013-02-15 10:23:00,
2013-02-15 05:29:00,34.6,28.1,30.00,West,272,0.0,2.0,77,0.00,,,0.00,Wunderground v.1.15,2013-02-15 10:29:00,
2013-02-15 05:35:00,34.5,27.7,30.00,West,272,0.0,2.0,76,0.00,,,0.00,Wunderground v.1.15,2013-02-15 10:35:00,
2013-02-15 05:41:00,34.4,27.6,30.00,West,272,0.0,2.0,76,0.00,,,0.00,Wunderground v.1.15,2013-02-15 10:41:00,
2013-02-15 05:47:00,34.3,27.5,30.00,West,272,0.0,2.0,76,0.00,,,0.00,Wunderground v.1.15,2013-02-15 10:47:00,
2013-02-15 05:53:00,34.2,27.7,30.00,West,272,0.0,2.0,77,0.00,,,0.00,Wunderground v.1.15,2013-02-15 10:53:00,
2013-02-15 05:58:00,34.1,27.6,30.00,West,272,0.0,2.0,77,0.00,,,0.00,Wunderground v.1.15,2013-02-15 10:58:00,
2013-02-15 06:04:00,33.9,27.4,30.00,West,272,0.0,2.0,77,0.00,,,0.00,Wunderground v.1.15,2013-02-15 11:04:00,
2013-02-15 06:10:00,33.7,27.3,30.01,West,272,0.0,2.0,77,0.00,,,0.00,Wunderground v.1.15,2013-02-15 11:10:00,
2013-02-15 06:16:00,33.6,27.2,30.01,West,272,0.0,2.0,77,0.00,,,0.00,Wunderground v.1.15,2013-02-15 11:16:00,
2013-02-15 06:22:00,33.5,27.7,30.01,West,272,0.0,2.0,79,0.00,,,0.00,Wunderground v.1.15,2013-02-15 11:22:00,
2013-02-15 06:28:00,33.4,27.3,30.01,West,272,0.0,2.0,78,0.00,,,0.00,Wunderground v.1.15,2013-02-15 11:28:00,
2013-02-15 06:34:00,33.4,27.6,30.01,West,272,0.0,2.0,79,0.00,,,0.00,Wunderground v.1.15,2013-02-15 11:34:00,
2013-02-15 06:40:00,33.3,27.2,30.02,West,272,0.0,2.0,78,0.00,,,0.00,Wunderground v.1.15,2013-02-15 11:40:00,
2013-02-15 06:46:00,33.3,27.5,30.02,West,272,0.0,2.0,79,0.00,,,0.00,Wunderground v.1.15,2013-02-15 11:46:00,
2013-02-15 06:52:00,33.3,27.2,30.02,West,272,0.0,2.0,78,0.00,,,0.00,Wunderground v.1.15,2013-02-15 11:52:00,
2013-02-15 06:58:00,33.3,27.5,30.02,West,272,0.0,2.0,79,0.00,,,0.00,Wunderground v.1.15,2013-02-15 11:58:00,
2013-02-15 07:04:00,33.3,27.2,30.02,West,272,0.0,2.0,78,0.00,,,0.00,Wunderground v.1.15,2013-02-15 12:04:00,
2013-02-15 07:10:00,33.3,27.2,30.02,West,272,0.0,2.0,78,0.00,,,0.00,Wunderground v.1.15,2013-02-15 12:10:00,
2013-02-15 07:16:00,33.2,27.4,30.02,West,272,0.0,2.0,79,0.00,,,0.00,Wunderground v.1.15,2013-02-15 12:16:00,
2013-02-15 07:22:00,33.2,27.4,30.03,West,272,0.0,2.0,79,0.00,,,0.00,Wunderground v.1.15,2013-02-15 12:22:00,
2013-02-15 07:28:00,33.2,27.4,30.03,West,272,0.0,2.0,79,0.00,,,0.00,Wunderground v.1.15,2013-02-15 12:28:00,
2013-02-15 07:34:00,33.2,27.4,30.03,West,272,0.0,2.0,79,0.00,,,0.00,Wunderground v.1.15,2013-02-15 12:34:00,
2013-02-15 07:39:00,33.2,27.4,30.03,West,272,0.0,2.0,79,0.00,,,0.00,Wunderground v.1.15,2013-02-15 12:39:00,
2013-02-15 07:45:00,33.1,27.0,30.03,West,272,0.0,2.0,78,0.00,,,0.00,Wunderground v.1.15,2013-02-15 12:45:00,
2013-02-15 07:51:00,33.2,27.4,30.04,West,272,0.0,2.0,79,0.00,,,0.00,Wunderground v.1.15,2013-02-15 12:51:00,
2013-02-15 11:09:00,36.6,27.0,30.05,South,191,3.0,6.0,68,0.00,,,0.00,Wunderground v.1.15,2013-02-15 16:09:00,
2013-02-15 11:15:00,36.8,27.6,30.05,NW,317,2.0,4.0,69,0.00,,,0.00,Wunderground v.1.15,2013-02-15 16:15:00,
2013-02-15 11:21:00,36.7,27.5,30.04,NNW,341,2.0,6.0,69,0.00,,,0.00,Wunderground v.1.15,2013-02-15 16:21:00,
2013-02-15 11:27:00,36.6,27.4,30.04,SW,222,3.0,6.0,69,0.00,,,0.00,Wunderground v.1.15,2013-02-15 16:27:00,
2013-02-15 11:32:00,36.7,27.5,30.04,SSW,213,2.0,2.0,69,0.00,,,0.00,Wunderground v.1.15,2013-02-15 16:32:00,
2013-02-15 11:38:00,36.7,27.5,30.04,West,273,2.0,4.0,69,0.00,,,0.00,Wunderground v.1.15,2013-02-15 16:38:00,
2013-02-15 11:44:00,36.4,27.2,30.04,SW,229,3.0,7.0,69,0.00,,,0.00,Wunderground v.1.15,2013-02-15 16:44:00,
2013-02-15 11:50:00,35.9,27.4,30.04,WSW,238,3.0,3.0,71,0.00,,,0.00,Wunderground v.1.15,2013-02-15 16:50:00,
2013-02-15 11:56:00,35.7,27.6,30.04,West,280,3.0,5.0,72,0.00,,,0.00,Wunderground v.1.15,2013-02-15 16:56:00,
2013-02-15 12:02:00,35.6,28.1,30.03,NW,322,3.0,5.0,74,0.00,,,0.00,Wunderground v.1.15,2013-02-15 17:02:00,
2013-02-15 12:08:00,35.7,28.2,30.03,SW,229,2.0,5.0,74,0.00,,,0.00,Wunderground v.1.15,2013-02-15 17:08:00,
2013-02-15 12:13:00,35.8,28.3,30.03,West,273,2.0,5.0,74,0.00,,,0.00,Wunderground v.1.15,2013-02-15 17:13:00,
2013-02-15 12:19:00,35.9,28.4,30.03,SW,215,2.0,6.0,74,0.00,,,0.00,Wunderground v.1.15,2013-02-15 17:19:00,
2013-02-15 12:25:00,36.1,28.6,30.02,South,182,2.0,5.0,74,0.00,,,0.00,Wunderground v.1.15,2013-02-15 17:25:00,
2013-02-15 12:31:00,36.1,28.3,30.02,West,273,2.0,4.0,73,0.00,,,0.00,Wunderground v.1.15,2013-02-15 17:31:00,
2013-02-15 12:37:00,35.9,28.1,30.02,WSW,248,3.0,4.0,73,0.00,,,0.00,Wunderground v.1.15,2013-02-15 17:37:00,
2013-02-15 12:43:00,35.8,28.6,30.02,SSW,209,1.0,2.0,75,0.00,,,0.00,Wunderground v.1.15,2013-02-15 17:43:00,
2013-02-15 12:48:00,35.7,28.6,30.01,West,259,1.0,4.0,75,0.00,,,0.00,Wunderground v.1.15,2013-02-15 17:48:00,
2013-02-15 12:54:00,35.3,28.5,30.01,South,190,2.0,6.0,76,0.00,,,0.00,Wunderground v.1.15,2013-02-15 17:54:00,
2013-02-15 13:00:00,35.1,28.6,30.02,SSW,202,2.0,3.0,77,0.00,,,0.00,Wunderground v.1.15,2013-02-15 18:00:00,
2013-02-15 13:06:00,35.0,28.8,30.01,West,264,2.0,3.0,78,0.00,,,0.00,Wunderground v.1.15,2013-02-15 18:06:00,
2013-02-15 13:12:00,34.4,29.5,30.01,WSW,244,2.0,3.0,82,0.00,,,0.00,Wunderground v.1.15,2013-02-15 18:12:00,
2013-02-15 13:18:00,33.8,29.8,30.01,WSW,255,2.0,3.0,85,0.00,,,0.00,Wunderground v.1.15,2013-02-15 18:18:00,
2013-02-15 13:24:00,33.5,30.3,30.01,WSW,255,1.0,2.0,88,0.00,,,0.00,Wunderground v.1.15,2013-02-15 18:24:00,
2013-02-15 13:29:00,33.3,30.4,30.01,WNW,292,1.0,2.0,89,0.00,,,0.00,Wunderground v.1.15,2013-02-15 18:29:00,
2013-02-15 13:35:00,32.8,30.2,30.01,WNW,292,1.0,2.0,90,0.00,,,0.00,Wunderground v.1.15,2013-02-15 18:35:00,
2013-02-15 13:41:00,32.4,30.1,30.01,WNW,288,1.0,2.0,91,0.00,,,0.00,Wunderground v.1.15,2013-02-15 18:41:00,
2013-02-15 13:47:00,32.0,29.9,30.01,WNW,282,1.0,2.0,92,0.00,,,0.00,Wunderground v.1.15,2013-02-15 18:47:00,
2013-02-15 13:53:00,31.9,30.1,30.01,West,262,1.0,2.0,93,0.00,,,0.00,Wunderground v.1.15,2013-02-15 18:53:00,
2013-02-15 13:59:00,31.6,30.1,30.01,WNW,298,1.0,2.0,94,0.00,,,0.00,Wunderground v.1.15,2013-02-15 18:59:00,
2013-02-15 14:05:00,31.5,30.0,30.01,WNW,301,0.0,2.0,94,0.00,,,0.00,Wunderground v.1.15,2013-02-15 19:05:00,
2013-02-15 14:11:00,31.5,30.2,30.01,WNW,288,0.0,2.0,95,0.00,,,0.00,Wunderground v.1.15,2013-02-15 19:11:00,
2013-02-15 14:16:00,31.4,30.1,30.01,WNW,288,0.0,2.0,95,0.00,,,0.00,Wunderground v.1.15,2013-02-15 19:16:00,
2013-02-15 14:22:00,31.0,29.7,30.01,WNW,284,0.0,2.0,95,0.00,,,0.00,Wunderground v.1.15,2013-02-15 19:22:00,
2013-02-15 14:28:00,30.8,29.5,30.01,NW,311,1.0,3.0,95,0.00,,,0.00,Wunderground v.1.15,2013-02-15 19:28:00,
2013-02-15 14:34:00,30.8,29.5,30.01,NW,311,1.0,2.0,95,0.00,,,0.00,Wunderground v.1.15,2013-02-15 19:34:00,
2013-02-15 14:40:00,30.7,29.4,30.01,NW,311,0.0,2.0,95,0.00,,,0.00,Wunderground v.1.15,2013-02-15 19:40:00,
2013-02-15 14:46:00,30.6,29.3,30.01,WNW,294,0.0,2.0,95,0.00,,,0.00,Wunderground v.1.15,2013-02-15 19:46:00,
2013-02-15 14:52:00,30.5,29.2,30.01,WNW,294,0.0,2.0,95,0.00,,,0.00,Wunderground v.1.15,2013-02-15 19:52:00,
2013-02-15 14:57:00,30.6,29.6,30.01,WNW,293,0.0,2.0,96,0.00,,,0.00,Wunderground v.1.15,2013-02-15 19:57:00,
2013-02-15 15:03:00,30.6,29.6,30.00,WNW,301,0.0,2.0,96,0.00,,,0.00,Wunderground v.1.15,2013-02-15 20:03:00,
2013-02-15 15:09:00,30.5,29.5,30.01,WNW,301,0.0,2.0,96,0.00,,,0.00,Wunderground v.1.15,2013-02-15 20:09:00,
2013-02-15 15:15:00,30.6,29.6,30.00,WNW,301,0.0,2.0,96,0.00,,,0.00,Wunderground v.1.15,2013-02-15 20:15:00,
2013-02-15 15:21:00,30.6,29.6,30.00,WNW,300,0.0,2.0,96,0.00,,,0.00,Wunderground v.1.15,2013-02-15 20:21:00,
2013-02-15 15:27:00,30.6,29.6,30.00,SW,227,0.0,2.0,96,0.00,,,0.00,Wunderground v.1.15,2013-02-15 20:27:00,
2013-02-15 15:33:00,30.6,29.6,30.00,SW,225,0.0,2.0,96,0.00,,,0.00,Wunderground v.1.15,2013-02-15 20:33:00,
2013-02-15 15:38:00,30.6,29.6,30.00,SW,225,0.0,2.0,96,0.00,,,0.00,Wunderground v.1.15,2013-02-15 20:38:00,
2013-02-15 15:43:00,30.7,29.7,30.00,SW,225,0.0,2.0,96,0.00,,,0.00,Wunderground v.1.15,2013-02-15 20:43:00,
2013-02-15 15:49:00,30.7,29.7,30.00,SW,225,0.0,2.0,96,0.00,,,0.00,Wunderground v.1.15,2013-02-15 20:49:00,
2013-02-15 15:55:00,30.7,29.7,30.00,SW,225,0.0,2.0,96,0.00,,,0.00,Wunderground v.1.15,2013-02-15 20:55:00,
2013-02-15 16:01:00,30.7,30.0,30.01,SW,235,0.0,2.0,97,0.00,,,0.00,Wunderground v.1.15,2013-02-15 21:01:00,
2013-02-15 16:07:00,30.8,30.0,30.01,SW,235,0.0,2.0,97,0.00,,,0.01,Wunderground v.1.15,2013-02-15 21:07:00,
2013-02-15 16:13:00,30.9,30.1,30.01,SW,235,0.0,2.0,97,0.00,,,0.01,Wunderground v.1.15,2013-02-15 21:13:00,
2013-02-15 16:19:00,31.0,30.2,30.01,WSW,237,0.0,2.0,97,0.00,,,0.01,Wunderground v.1.15,2013-02-15 21:19:00,
2013-02-15 16:25:00,31.0,30.2,30.01,WSW,237,0.0,2.0,97,0.00,,,0.01,Wunderground v.1.15,2013-02-15 21:25:00,
2013-02-15 16:32:00,31.0,30.2,30.01,WNW,294,0.0,2.0,97,0.00,,,0.01,Wunderground v.1.15,2013-02-15 21:32:00,
2013-02-15 16:38:00,31.0,30.2,30.01,West,261,0.0,2.0,97,0.00,,,0.01,Wunderground v.1.15,2013-02-15 21:38:00,
2013-02-15 16:43:00,30.9,30.1,30.01,West,261,0.0,2.0,97,0.00,,,0.01,Wunderground v.1.15,2013-02-15 21:43:00,
2013-02-15 16:49:00,30.9,30.1,30.01,West,261,0.0,2.0,97,0.00,,,0.01,Wunderground v.1.15,2013-02-15 21:49:00,
2013-02-15 16:55:00,30.9,30.1,30.01,West,261,0.0,2.0,97,0.00,,,0.01,Wunderground v.1.15,2013-02-15 21:55:00,
2013-02-15 17:01:00,31.0,30.2,30.01,West,261,0.0,2.0,97,0.00,,,0.01,Wunderground v.1.15,2013-02-15 22:01:00,
2013-02-15 17:07:00,31.0,30.2,30.01,West,259,0.0,2.0,97,0.00,,,0.01,Wunderground v.1.15,2013-02-15 22:07:00,
2013-02-15 17:13:00,30.9,30.1,30.01,SSW,212,0.0,2.0,97,0.00,,,0.01,Wunderground v.1.15,2013-02-15 22:13:00,
2013-02-15 17:19:00,30.9,30.1,30.01,SW,221,1.0,2.0,97,0.00,,,0.01,Wunderground v.1.15,2013-02-15 22:19:00,
2013-02-15 17:24:00,30.8,30.0,30.01,SW,228,1.0,2.0,97,0.00,,,0.01,Wunderground v.1.15,2013-02-15 22:24:00,
2013-02-15 17:30:00,30.7,30.0,30.01,WSW,254,1.0,2.0,97,0.00,,,0.01,Wunderground v.1.15,2013-02-15 22:30:00,
2013-02-15 17:36:00,30.6,29.9,30.01,SW,230,0.0,2.0,97,0.00,,,0.01,Wunderground v.1.15,2013-02-15 22:36:00,
2013-02-15 17:42:00,30.6,29.9,30.01,West,279,0.0,2.0,97,0.00,,,0.01,Wunderground v.1.15,2013-02-15 22:42:00,
2013-02-15 17:48:00,30.5,29.8,30.02,WSW,242,1.0,2.0,97,0.00,,,0.01,Wunderground v.1.15,2013-02-15 22:48:00,
2013-02-15 17:54:00,30.6,29.9,30.02,West,267,0.0,3.0,97,0.00,,,0.01,Wunderground v.1.15,2013-02-15 22:54:00,
2013-02-15 18:00:00,30.6,29.9,30.02,SW,230,1.0,1.0,97,0.00,,,0.01,Wunderground v.1.15,2013-02-15 23:00:00,
2013-02-15 18:06:00,30.6,29.9,30.02,SW,234,1.0,2.0,97,0.00,,,0.01,Wunderground v.1.15,2013-02-15 23:06:00,
2013-02-15 18:12:00,30.7,30.0,30.02,SW,234,0.0,2.0,97,0.00,,,0.01,Wunderground v.1.15,2013-02-15 23:12:00,
2013-02-15 18:18:00,30.7,30.0,30.02,SW,234,0.0,2.0,97,0.00,,,0.01,Wunderground v.1.15,2013-02-15 23:18:00,
2013-02-15 18:23:00,30.7,30.0,30.02,SW,234,0.0,2.0,97,0.00,,,0.01,Wunderground v.1.15,2013-02-15 23:23:00,
2013-02-15 18:29:00,30.7,30.0,30.02,WSW,246,0.0,2.0,97,0.00,,,0.01,Wunderground v.1.15,2013-02-15 23:29:00,
2013-02-15 18:35:00,30.7,30.0,30.02,West,268,1.0,2.0,97,0.00,,,0.01,Wunderground v.1.15,2013-02-15 23:35:00,
2013-02-15 18:41:00,30.6,29.9,30.02,South,188,0.0,2.0,97,0.00,,,0.01,Wunderground v.1.15,2013-02-15 23:41:00,
2013-02-15 18:47:00,30.6,29.9,30.02,SW,225,0.0,3.0,97,0.00,,,0.01,Wunderground v.1.15,2013-02-15 23:47:00,
2013-02-15 18:53:00,30.6,29.9,30.02,SW,233,0.0,2.0,97,0.00,,,0.01,Wunderground v.1.15,2013-02-15 23:53:00,
2013-02-15 18:59:00,30.5,29.8,30.02,SW,233,0.0,2.0,97,0.00,,,0.01,Wunderground v.1.15,2013-02-15 23:59:00,
2013-02-15 19:04:00,30.5,29.8,30.02,SW,233,0.0,2.0,97,0.00,,,0.01,Wunderground v.1.15,2013-02-16 00:04:00,
2013-02-15 19:09:00,30.5,29.8,30.02,SW,233,0.0,2.0,97,0.00,,,0.01,Wunderground v.1.15,2013-02-16 00:09:00,
2013-02-15 19:15:00,30.5,29.8,30.02,West,279,0.0,5.0,97,0.00,,,0.01,Wunderground v.1.15,2013-02-16 00:15:00,
2013-02-15 19:21:00,30.4,29.7,30.03,West,279,0.0,2.0,97,0.00,,,0.01,Wunderground v.1.15,2013-02-16 00:21:00,
2013-02-15 19:27:00,30.5,29.8,30.02,WSW,241,0.0,2.0,97,0.00,,,0.01,Wunderground v.1.15,2013-02-16 00:27:00,
2013-02-15 19:33:00,30.5,29.8,30.03,SW,226,0.0,2.0,97,0.00,,,0.01,Wunderground v.1.15,2013-02-16 00:33:00,
2013-02-15 19:39:00,30.5,29.8,30.03,SSW,213,0.0,3.0,97,0.00,,,0.01,Wunderground v.1.15,2013-02-16 00:39:00,
2013-02-15 19:45:00,30.5,29.8,30.03,SW,216,1.0,2.0,97,0.00,,,0.01,Wunderground v.1.15,2013-02-16 00:45:00,
2013-02-15 19:50:00,30.5,29.8,30.03,SW,219,1.0,2.0,97,0.00,,,0.01,Wunderground v.1.15,2013-02-16 00:50:00,
2013-02-15 19:56:00,30.5,29.8,30.03,WSW,237,1.0,2.0,97,0.00,,,0.01,Wunderground v.1.15,2013-02-16 00:56:00,
2013-02-15 20:02:00,30.5,29.8,30.03,SW,214,1.0,2.0,97,0.00,,,0.01,Wunderground v.1.15,2013-02-16 01:02:00,
2013-02-15 20:08:00,30.5,29.8,30.03,West,269,0.0,2.0,97,0.00,,,0.01,Wunderground v.1.15,2013-02-16 01:08:00,
2013-02-15 20:14:00,30.5,29.8,30.03,West,260,0.0,2.0,97,0.00,,,0.01,Wunderground v.1.15,2013-02-16 01:14:00,
2013-02-15 20:20:00,30.5,29.8,30.03,West,281,0.0,2.0,97,0.00,,,0.01,Wunderground v.1.15,2013-02-16 01:20:00,
2013-02-15 20:26:00,30.6,29.9,30.03,SSE,150,1.0,2.0,97,0.00,,,0.01,Wunderground v.1.15,2013-02-16 01:26:00,
2013-02-15 20:32:00,30.6,29.9,30.03,SSW,208,1.0,3.0,97,0.00,,,0.01,Wunderground v.1.15,2013-02-16 01:32:00,
2013-02-15 20:37:00,30.6,29.9,30.03,WSW,250,1.0,3.0,97,0.00,,,0.01,Wunderground v.1.15,2013-02-16 01:37:00,
2013-02-15 20:43:00,30.7,30.0,30.02,SSW,213,1.0,2.0,97,0.00,,,0.01,Wunderground v.1.15,2013-02-16 01:43:00,
2013-02-15 20:49:00,30.8,30.0,30.02,SSW,209,0.0,5.0,97,0.00,,,0.01,Wunderground v.1.15,2013-02-16 01:49:00,
2013-02-15 20:55:00,30.7,30.0,30.02,SW,215,1.0,2.0,97,0.00,,,0.01,Wunderground v.1.15,2013-02-16 01:55:00,
2013-02-15 21:01:00,30.7,30.0,30.02,WSW,242,1.0,2.0,97,0.00,,,0.01,Wunderground v.1.15,2013-02-16 02:01:00,
2013-02-15 21:07:00,30.7,30.0,30.02,South,188,1.0,3.0,97,0.00,,,0.01,Wunderground v.1.15,2013-02-16 02:07:00,
2013-02-15 21:12:00,30.7,30.0,30.02,SW,219,1.0,2.0,97,0.00,,,0.01,Wunderground v.1.15,2013-02-16 02:12:00,
2013-02-15 21:18:00,30.7,30.0,30.03,West,261,1.0,2.0,97,0.00,,,0.01,Wunderground v.1.15,2013-02-16 02:18:00,
2013-02-15 21:24:00,30.7,30.0,30.03,WNW,296,2.0,3.0,97,0.00,,,0.01,Wunderground v.1.15,2013-02-16 02:24:00,
2013-02-15 21:30:00,30.7,30.0,30.03,NW,304,2.0,3.0,97,0.00,,,0.01,Wunderground v.1.15,2013-02-16 02:30:00,
2013-02-15 21:36:00,30.6,29.9,30.03,SW,232,2.0,3.0,97,0.00,,,0.01,Wunderground v.1.15,2013-02-16 02:36:00,
2013-02-15 21:42:00,30.5,29.8,30.03,West,266,1.0,2.0,97,0.00,,,0.01,Wunderground v.1.15,2013-02-16 02:42:00,
2013-02-15 21:48:00,30.5,29.8,30.03,WNW,288,1.0,7.0,97,0.00,,,0.01,Wunderground v.1.15,2013-02-16 02:48:00,
2013-02-15 21:54:00,30.4,29.7,30.03,WSW,244,1.0,5.0,97,0.00,,,0.01,Wunderground v.1.15,2013-02-16 02:54:00,
2013-02-15 22:00:00,30.4,29.7,30.03,SSW,202,1.0,1.0,97,0.00,,,0.01,Wunderground v.1.15,2013-02-16 03:00:00,
2013-02-15 22:05:00,30.4,29.7,30.04,West,277,1.0,4.0,97,0.00,,,0.01,Wunderground v.1.15,2013-02-16 03:05:00,
2013-02-15 22:11:00,30.3,29.6,30.04,West,271,1.0,2.0,97,0.00,,,0.01,Wunderground v.1.15,2013-02-16 03:11:00,
2013-02-15 22:17:00,30.2,29.5,30.04,NNW,337,1.0,2.0,97,0.00,,,0.01,Wunderground v.1.15,2013-02-16 03:17:00,
2013-02-15 22:23:00,30.0,29.3,30.04,WNW,300,1.0,2.0,97,0.00,,,0.01,Wunderground v.1.15,2013-02-16 03:23:00,
2013-02-15 22:29:00,29.9,29.2,30.04,WNW,289,1.0,2.0,97,0.00,,,0.01,Wunderground v.1.15,2013-02-16 03:29:00,
2013-02-15 22:35:00,29.8,29.1,30.04,WNW,291,2.0,3.0,97,0.00,,,0.01,Wunderground v.1.15,2013-02-16 03:35:00,
2013-02-15 22:41:00,29.7,29.0,30.04,WNW,299,2.0,2.0,97,0.00,,,0.01,Wunderground v.1.15,2013-02-16 03:41:00,
2013-02-15 22:47:00,29.6,28.9,30.04,WNW,301,0.0,2.0,97,0.00,,,0.01,Wunderground v.1.15,2013-02-16 03:47:00,
2013-02-15 22:52:00,29.6,28.9,30.04,NNW,340,0.0,2.0,97,0.00,,,0.01,Wunderground v.1.15,2013-02-16 03:52:00,
2013-02-15 22:58:00,29.4,28.7,30.04,WNW,287,1.0,3.0,97,0.00,,,0.01,Wunderground v.1.15,2013-02-16 03:58:00,
2013-02-15 23:04:00,29.3,28.6,30.04,NNW,348,0.0,2.0,97,0.00,,,0.01,Wunderground v.1.15,2013-02-16 04:04:00,
2013-02-15 23:10:00,29.1,28.4,30.04,NW,304,1.0,7.0,97,0.00,,,0.01,Wunderground v.1.15,2013-02-16 04:10:00,
2013-02-15 23:16:00,29.0,28.3,30.04,NNW,336,1.0,7.0,97,0.00,,,0.01,Wunderground v.1.15,2013-02-16 04:16:00,
2013-02-15 23:22:00,28.9,28.2,30.04,WNW,302,1.0,3.0,97,0.00,,,0.01,Wunderground v.1.15,2013-02-16 04:22:00,
2013-02-15 23:28:00,28.8,28.1,30.04,NW,321,1.0,3.0,97,0.00,,,0.01,Wunderground v.1.15,2013-02-16 04:28:00,
2013-02-15 23:34:00,28.7,28.0,30.04,West,263,1.0,4.0,97,0.00,,,0.01,Wunderground v.1.15,2013-02-16 04:34:00,
2013-02-15 23:39:00,28.6,27.9,30.04,NNW,343,1.0,4.0,97,0.00,,,0.01,Wunderground v.1.15,2013-02-16 04:39:00,
2013-02-15 23:45:00,28.5,27.8,30.04,WNW,288,1.0,4.0,97,0.00,,,0.01,Wunderground v.1.15,2013-02-16 04:45:00,
2013-02-15 23:51:00,28.4,27.4,30.04,West,277,1.0,2.0,96,0.00,,,0.01,Wunderground v.1.15,2013-02-16 04:51:00,
2013-02-15 23:57:00,28.3,27.3,30.04,SW,225,0.0,2.0,96,0.00,,,0.01,Wunderground v.1.15,2013-02-16 04:57:00,